Weather in Kombolcha

Ethiopia     11°08′14″N   39°37′46″E
temp.,
°C
wind,
m/s
gust,
m/s
humid.,
%
clouds,
%
prec.,
mm/h
press.,
hPa
HPBL,
m
20 september, mon
mon2000:00+14w338030 0.9 101729
03:00+14w22740 0.9 101515
06:00+14w22720 0.0 101613
09:00+20nne24485 0.0 1016975
12:00+23ne45385 0.0 10132134
15:00+23ne453810 0.0 10112414
18:00+19ne225487 0.0 101314
21:00+18wnw014689 0.0 101511
21 september, tue
tue2100:00+16wnw22504 0.0 101514
03:00+15w224823 0.0 101416
06:00+14w224896 0.0 101613
09:00+20ne224089 0.0 1016664
12:00+23ne23365 0.0 10141802
15:00+23ene343514 0.0 10112325
18:00+19ne22505 0.0 101311
21:00+17w124373 0.0 101512
22 september, wed
wed2200:00+16wnw22445 0.0 101515
03:00+15w22485 0.0 101416
06:00+15w2252100 0.0 101513
09:00+21nne23443 0.0 10151042
12:00+23ne34396 0.0 10132339
15:00+22ne444585 0.0 10111170
18:00+19ne225248 0.0 101213
21:00+16e3464100 0.3 101680
23 september, thu
thu2300:00+15wsw2378100 1.4 101654
03:00+14sw117619 1.7 101411
06:00+14wsw2275100 0.0 101519
09:00+20wnw015475 0.1 1015643
12:00+22ne4447100 0.4 10132207
15:00+21ene2355100 0.8 10111046
18:00+18ne016379 0.3 101211
21:00+15wnw4488100 3.0 101694
24 september, fri
fri2400:00+14w348578 2.8 101681
03:00+13w3385100 3.8 101544
06:00+14w128092 0.9 101617
09:00+15wsw238092 2.2 1017109
12:00+22ene245018 0.1 10132029
15:00+21ene455573 0.4 10111228
18:00+18e226234 0.1 101214
21:00+16w1270100 0.4 101523